Location: Venise Bay
(45.0825°N, 73.1481°W)
Time: 06:25:28
(UTC-05:00)

Envisat - Visible Passes

Search period start: 25 February 2020 00:00
Search period end: 06 March 2020 00:00
Orbit: 764 x 766 km, 98.1° (Epoch: 24 February)

Date Brightness Start Highest point End Pass type
(mag) Time Alt. Az. Time Alt. Az. Time Alt. Az.
25 Feb 6.0 05:24:22 10° NE 05:27:59 19° E 05:31:34 10° SE visible
25 Feb 4.9 18:19:19 10° SSW 18:23:57 35° W 18:28:37 10° NNW visible
27 Feb 5.1 05:49:08 10° NNE 05:53:41 32° E 05:58:12 10° SSE visible
27 Feb 5.8 18:45:51 10° SW 18:49:39 21° W 18:53:28 10° NW visible
28 Feb 6.3 05:13:35 10° NE 05:16:33 15° E 05:19:29 10° SE visible
28 Feb 4.4 18:07:45 10° S 18:12:36 44° W 18:17:27 10° NNW visible
29 Feb 6.4 19:13:30 10° WSW 19:15:26 12° W 19:17:23 10° WNW visible
01 Mar 5.6 05:38:04 10° NE 05:42:18 26° E 05:46:30 10° SSE visible
01 Mar 5.5 18:34:01 10° SSW 18:38:14 26° W 18:42:29 10° NW visible
02 Mar 6.5 05:03:10 10° ENE 05:05:06 12° E 05:07:01 10° ESE visible
03 Mar 6.2 19:01:02 10° SW 19:03:59 15° W 19:06:58 10° NW visible
04 Mar 6.0 05:27:05 10° NE 05:30:53 21° E 05:34:41 10° SE visible
04 Mar 5.1 18:22:19 10° SSW 18:26:51 32° W 18:31:25 10° NNW visible
